Location: *
(51.1248°S, 108.4023°W)
Time: 00:54:34
(UTC+00:00)

Cosmos 1544 - Pass Details

Date: 30 October 2021
Orbit: 467 x 486 km, 82.5° (Epoch: 03 December)

Event Time Altitude Azimuth Distance (km) Brightness Sun altitude
Exits shadow 08:52:46 21° 249° (WSW) 1,151 4.8 -20.3°
Maximum altitude 08:52:48 21° 248° (WSW) 1,151 4.8 -20.3°
Drops below altitude 10° 08:55:39 10° 197° (SSW) 1,688 6.4 -20.0°
Sets 08:58:11 0° 180° (S) 2,582 7.7 -19.8°
